Miscellaneous Local Product
Issued by NWS Hastings, NE

Home | Current Version | Previous Version | Text Only | Print | Product List | Glossary Off
Versions: 1 2 3 4 5 6 7 8 9 10 11 12 13 14 15 16 17 18 19 20 21 22 23 24 25 26 27 28 29 30 31 32 33 34 35 36 37 38 39 40 41 42 43 44 45 46 47 48 49 50

647
AXUS43 KGID 152202
MISGRI

GID CWA HOURLY WEATHER ROUNDUP
NATIONAL WEATHER SERVICE HASTINGS NE
400 PM CST FRI DEC 15 2017

NOTE: "FAIR" INDICATES FEW OR NO CLOUDS BELOW 12,000 FEET WITH NO
SIGNIFICANT WEATHER AND/OR OBSTRUCTIONS TO VISIBILITY.

...SOUTH CENTRAL NEBRASKA...

CITY           SKY/WX    TMP DP  RH WIND       PRES   REMARKS
GRAND ISLAND   CLEAR     50  26  39 SW15      29.83F
KEARNEY        CLEAR     52  20  28 SW16      29.82F
HASTINGS       CLEAR     51  21  30 SW13G23   29.84F
ORD            CLEAR     49  27  42 SW8       29.78F
YORK           CLEAR     48  27  43 SW14      29.84F
AURORA         CLEAR     48  28  45 SW14      29.83F
LEXINGTON      SUNNY     55  18  23 SW12      29.82F
HOLDREGE       SUNNY     53  20  28 SW10G16   29.84F
HEBRON         CLEAR     51  26  38 SW10G16   29.90R

...NEBRASKA PANHANDLE...

CITY           SKY/WX    TMP DP  RH WIND       PRES   REMARKS
CHADRON        CLOUDY    55  14  19 W8        29.75S
ALLIANCE       CLOUDY    53  15  22 W16       29.79F
SCOTTSBLUFF    CLOUDY    57  13  17 W18G26    29.82F
SIDNEY         CLOUDY    59  13  16 NW17G25   29.83F

...WESTERN AND NORTH CENTRAL NEBRASKA...

CITY           SKY/WX    TMP DP  RH WIND       PRES   REMARKS
VALENTINE      PTCLDY    50  28  42 W6        29.73F
AINSWORTH      PTCLDY    48  32  53 SW8       29.74F
ONEILL         CLEAR     48  29  48 SW10      29.75F
BROKEN BOW     CLEAR     51  25  36 SW9       29.78F
IMPERIAL       SUNNY     58  11  15 W12       29.85F
NORTH PLATTE   SUNNY     57  14  18 W16       29.81F
MCCOOK         SUNNY     59  13  16 SW10      29.84F

...EASTERN NEBRASKA...

CITY           SKY/WX    TMP DP  RH WIND       PRES   REMARKS
NORFOLK        CLEAR     44  29  55 SW12      29.76F
SO SIOUX CITY  CLOUDY    46  24  42 SW12      29.78F
TEKAMAH        PTCLDY    48  25  40 SW15      29.80F
COLUMBUS       CLEAR     46  29  51 SW16      29.82F
ALBION         CLEAR     47  31  52 SW8       29.79F
OMAHA EPPLEY   PTCLDY    49  24  37 SW13G24   29.84F
OFFUTT AFB     MOCLDY    49  24  37 SW17G24   29.85F
MILLARD        CLEAR     50  27  41 SW8G17    29.84F
LINCOLN        CLEAR     49  26  41 SW17      29.87F
NEBRASKA CITY  CLEAR     48  27  45 SW18      29.89F
BEATRICE       CLEAR     50  25  37 SW15      29.90S
FALLS CITY     CLEAR     48  24  39 SW15G21   29.93F

...NORTHERN KANSAS...

CITY           SKY/WX    TMP DP  RH WIND       PRES   REMARKS
GOODLAND       SUNNY     59   5  11 SW14G22   29.89F
HILL CITY      SUNNY     59  14  17 SW14      29.90F
NORTON         CLEAR     57   3  11 SW13      29.87S
PHILLIPSBURG   SUNNY     61   9  12 SW12      29.88F
HAYS           SUNNY     56  20  24 SW23      29.92F
RUSSELL        SUNNY     56  18  22 SW23      29.90F
CONCORDIA      CLEAR     52  22  30 SW14      29.90F
SALINA         SUNNY     56  21  25 SW17      29.96F
TOPEKA         CLEAR     49  25  39 SW15G21   30.00F



USA.gov is the U.S. government's official web portal to all federal, state and local government web resources and services.